Location: Bittkow
(50.3000°N, 19.0000°E)
Time: 05:10:22
(UTC+00:00)

SKYMED 2 - Pass Details

Date: 19 September 2020
Orbit: 621 x 623 km, 97.9° (Epoch: 20 October)

Event Time Altitude Azimuth Distance (km) Brightness Sun altitude
Rises 03:41:06 0° 162° (SSE) 2,894 7.1 -8.0°
Reaches altitude 10° 03:43:16 10° 162° (SSE) 1,992 6.3 -7.6°
Maximum altitude 03:47:37 83° 74° (ENE) 636 3.7 -6.9°
Drops below altitude 10° 03:51:59 10° 348° (NNW) 2,007 6.2 -6.3°
Sets 03:54:11 0° 347° (NNW) 2,918 7.0 -5.9°
